This demonstration page uses our WeatherBlox Daily Observations layout. Learn more.

38.88101, -77.10428

Hourly Observations for June 2, 2019

Temp ( °F °C ) Dew Point ( °F °C ) Humidity (%) Winds ( mph kmh ) Pressure ( in mb ) Visibility ( mi km ) Precip ( " mm )
12:52 am 00:52 Cloudy 74 23.3 57 13.9 56 56 NNE 14 22 29.83 1010 10 16.09344 0 0
1:52 am 01:52 Cloudy 72 22.2 56 13.3 57 57 NNE 14 22 29.83 1010 10 16.09344 0 0
2:52 am 02:52 Cloudy 71 21.7 57 13.9 61 61 E 6 9 29.8 1009 10 16.09344 0 0
3:52 am 03:52 Cloudy 70 21.1 56 13.3 61 61 E 3 6 29.77 1008 10 16.09344 0 0
4:52 am 04:52 Cloudy 68 20 58 14.4 70 70 SSE 7 11 29.77 1008 10 16.09344 0 0
5:52 am 05:52 Mostly Cloudy 67 19.4 59 15 76 76 SSW 6 9 29.74 1007 10 16.09344 0 0
6:52 am 06:52 Mostly Cloudy 68 20 60 15.6 76 76 SW 3 6 29.77 1008 10 16.09344 0 0
7:52 am 07:52 Mostly Cloudy 71 21.7 61 16.1 71 71 SSW 6 9 29.77 1008 10 16.09344 0 0
8:52 am 08:52 Sunny 74 23.3 62 16.7 67 67 W 9 15 29.77 1008 10 16.09344 0 0
9:52 am 09:52 Sunny 77 25 62 16.7 60 60 VRB 5 7 29.77 1008 10 16.09344 0 0
10:52 am 10:52 Sunny 79 26.1 62 16.7 56 56 S 7 11 29.77 1008 10 16.09344 0 0
12:52 pm 12:52 Mostly Cloudy 82 27.8 61 16.1 49 49 SSW 8 13 29.74 1007 10 16.09344 0 0
1:52 pm 13:52 Mostly Cloudy 84 28.9 62 16.7 48 48 undefined N/A 29.74 1007 10 16.09344 0 0
2:00 pm 14:00 Mostly Cloudy 82 27.8 62 16.7 51 51 S 7 11 29.74 1007 10 16.09344 0 0
2:52 pm 14:52 Mostly Cloudy 85 29.4 61 16.1 45 45 SW 13 20 29.71 1006 9 14.484096 0 0
3:52 pm 15:52 Mostly Cloudy 84 28.9 60 15.6 44 44 WSW 13 20 29.71 1006 10 16.09344 0 0
4:52 pm 16:52 Mostly Cloudy 83 28.3 62 16.7 49 49 SW 14 22 29.68 1005 10 16.09344 0 0
5:34 pm 17:34 Mostly Cloudy with Thunderstorms 83 28.3 59 15 44 44 SW 15 24 29.71 1006 10 16.09344 0 0
5:52 pm 17:52 Mostly Cloudy with Light Thunderstorms 80 26.7 63 17.2 56 56 WSW 14 22 29.71 1006 10 16.09344 0.001 0.001
6:03 pm 18:03 Mostly Cloudy with Light Rain 80 26.7 64 17.8 58 58 WSW 7 11 29.71 1006 10 16.09344 0.001 0.001
6:47 pm 18:47 Mostly Cloudy with Light Thunderstorms 77 25 64 18 65 65 WNW 17 28 29.77 1008 10 16.09344 0.001 0.001
6:52 pm 18:52 Windy with Storms Likely 73 22.8 64 17.8 74 74 NNW 20 31 29.77 1008 10 16.09344 0.001 0.001
6:54 pm 18:54 Windy with Storms Likely 72 22.2 64 17.8 76 76 NNW 20 31 29.77 1008 8 12.874752 0.001 0.001
7:10 pm 19:10 Mostly Cloudy with Light Rain 71 21.7 64 17.8 79 79 Calm 29.74 1007 10 16.09344 0.01 0.254
7:52 pm 19:52 Mostly Cloudy 72 22.2 64 17.8 76 76 E 6 9 29.74 1007 10 16.09344 0.01 0.254
8:52 pm 20:52 Mostly Cloudy 70 21.1 65 18.3 84 84 Calm 29.74 1007 10 16.09344 0 0
9:52 pm 21:52 Mostly Cloudy 70 21.1 65 18.3 84 84 W 3 6 29.77 1008 10 16.09344 0 0
10:14 pm 22:14 Clear with Thunderstorms 69 20.6 63 17.2 81 81 SW 5 7 29.8 1009 10 16.09344 0 0
10:52 pm 22:52 Mostly Cloudy with Thunderstorms 69 20.6 63 17.2 81 81 WSW 5 7 29.8 1009 10 16.09344 0 0
11:31 pm 23:31 Mostly Cloudy with Nearby Thunderstorms 70 21.1 62 16.7 76 76 NNW 12 19 29.8 1009 10 16.09344 0 0
11:41 pm 23:41 Mostly Cloudy 69 20.6 63 17.2 81 81 NNW 13 20 29.8 1009 10 16.09344 0 0
11:52 pm 23:52 Mostly Cloudy 69 20.6 63 17.2 81 81 NNW 9 15 29.8 1009 10 16.09344 0 0

Powered by AerisWeather